Location: Corralito
(10.2667°N, 66.9500°W)
Time: 18:05:47
(UTC+00:00)

CZ-4B DEB - Pass Details

Date: 23 March 2023
Orbit: 838 x 860 km, 99.1° (Epoch: 09 June)

Event Time Altitude Azimuth Distance (km) Brightness Sun altitude
Rises 23:02:02 0° 156° (SSE) 3,407 7.1 -6.6°
Reaches altitude 10° 23:04:27 10° 151° (SSE) 2,474 6.3 -7.2°
Maximum altitude 23:09:46 52° 76° (ENE) 1,054 4.4 -8.5°
Drops below altitude 10° 23:15:06 10° 1° (N) 2,485 6.7 -9.8°
Sets 23:17:32 0° 356° (N) 3,423 7.5 -10.4°
